TimeCDT,TemperatureF,Dew PointF,Humidity,Sea Level PressureIn,VisibilityMPH,Wind Direction,Wind SpeedMPH,Gust SpeedMPH,PrecipitationIn,Events,Conditions,WindDirDegrees,DateUTC
12:15 AM,67.3,67.3,100,30.21,10.0,East,6.9,-,N/A,,Overcast,100,2013-04-26 05:15:00
12:35 AM,67.6,67.6,100,30.20,7.0,East,8.1,-,N/A,,Overcast,100,2013-04-26 05:35:00
12:55 AM,68.0,68.0,100,30.20,7.0,ESE,8.1,-,N/A,,Overcast,110,2013-04-26 05:55:00
1:15 AM,68.2,68.2,100,30.19,7.0,ESE,8.1,-,N/A,,Overcast,110,2013-04-26 06:15:00
1:35 AM,68.5,68.5,100,30.18,7.0,ESE,9.2,-,N/A,,Overcast,110,2013-04-26 06:35:00
1:55 AM,68.9,68.9,100,30.17,7.0,ESE,9.2,-,N/A,,Overcast,110,2013-04-26 06:55:00
2:15 AM,68.9,68.9,100,30.17,10.0,ESE,9.2,-,N/A,,Overcast,110,2013-04-26 07:15:00
2:35 AM,69.1,69.1,100,30.16,10.0,ESE,9.2,-,N/A,,Overcast,120,2013-04-26 07:35:00
2:55 AM,69.3,69.3,100,30.15,10.0,ESE,10.4,-,N/A,,Overcast,120,2013-04-26 07:55:00
3:15 AM,69.3,69.3,100,30.15,10.0,ESE,9.2,-,N/A,,Overcast,120,2013-04-26 08:15:00
3:35 AM,69.3,69.3,100,30.14,10.0,ESE,10.4,-,N/A,,Overcast,110,2013-04-26 08:35:00
3:55 AM,69.4,69.4,100,30.14,10.0,ESE,11.5,-,N/A,,Overcast,120,2013-04-26 08:55:00
4:15 AM,69.8,69.8,100,30.13,10.0,ESE,9.2,-,N/A,,Overcast,120,2013-04-26 09:15:00
4:35 AM,69.8,69.8,100,30.13,10.0,ESE,9.2,-,N/A,,Overcast,120,2013-04-26 09:35:00
4:55 AM,69.8,69.8,100,30.13,10.0,ESE,9.2,-,N/A,,Overcast,110,2013-04-26 09:55:00
5:15 AM,70.0,70.0,100,30.12,7.0,ESE,9.2,-,N/A,,Overcast,110,2013-04-26 10:15:00
5:35 AM,70.0,70.0,100,30.12,7.0,ESE,9.2,-,N/A,,Overcast,110,2013-04-26 10:35:00
5:55 AM,69.8,69.8,100,30.12,7.0,ESE,10.4,-,N/A,,Overcast,120,2013-04-26 10:55:00
6:15 AM,69.6,69.6,100,30.11,7.0,ESE,11.5,-,N/A,,Overcast,120,2013-04-26 11:15:00
6:35 AM,68.0,68.0,100,30.12,7.0,ESE,9.2,-,N/A,,Scattered Clouds,110,2013-04-26 11:35:00
6:55 AM,68.7,68.7,100,30.13,5.0,ESE,8.1,-,N/A,,Clear,110,2013-04-26 11:55:00
7:15 AM,68.5,68.5,100,30.14,5.0,ESE,9.2,-,N/A,,Clear,110,2013-04-26 12:15:00
7:35 AM,68.9,68.9,100,30.14,5.0,ESE,8.1,-,N/A,,Clear,110,2013-04-26 12:35:00
7:55 AM,69.8,69.8,100,30.15,7.0,ESE,10.4,-,N/A,,Clear,110,2013-04-26 12:55:00
8:15 AM,70.9,70.9,100,30.15,7.0,ESE,10.4,-,N/A,,Clear,110,2013-04-26 13:15:00
8:35 AM,72.3,72.3,100,30.15,10.0,ESE,11.5,-,N/A,,Clear,120,2013-04-26 13:35:00
8:55 AM,73.6,73.2,99,30.16,10.0,ESE,12.7,-,N/A,,Scattered Clouds,120,2013-04-26 13:55:00
9:15 AM,74.8,72.0,91,30.16,10.0,ESE,16.1,21.9,N/A,,Mostly Cloudy,120,2013-04-26 14:15:00
9:35 AM,75.7,70.2,83,30.16,10.0,SE,12.7,18.4,N/A,,Mostly Cloudy,130,2013-04-26 14:35:00
9:55 AM,76.8,69.4,78,30.16,10.0,ESE,12.7,19.6,N/A,,Mostly Cloudy,120,2013-04-26 14:55:00
10:15 AM,77.9,69.3,75,30.16,10.0,SE,17.3,21.9,N/A,,Mostly Cloudy,130,2013-04-26 15:15:00
10:35 AM,78.8,68.9,72,30.16,10.0,SE,13.8,26.5,N/A,,Mostly Cloudy,140,2013-04-26 15:35:00
10:55 AM,79.5,69.3,71,30.17,10.0,SE,17.3,-,N/A,,Mostly Cloudy,140,2013-04-26 15:55:00
11:15 AM,80.2,69.3,69,30.17,10.0,SE,13.8,-,N/A,,Mostly Cloudy,130,2013-04-26 16:15:00
11:35 AM,80.8,69.4,68,30.18,10.0,SSE,16.1,24.2,N/A,,Mostly Cloudy,150,2013-04-26 16:35:00
11:55 AM,80.4,68.7,67,30.18,10.0,SE,13.8,24.2,N/A,,Overcast,140,2013-04-26 16:55:00
12:15 PM,80.2,68.9,68,30.17,10.0,SE,13.8,-,N/A,,Overcast,130,2013-04-26 17:15:00
12:35 PM,80.6,69.4,69,30.16,10.0,SE,16.1,26.5,N/A,,Overcast,140,2013-04-26 17:35:00
12:55 PM,81.3,69.4,67,30.16,10.0,SE,17.3,21.9,N/A,,Mostly Cloudy,140,2013-04-26 17:55:00
1:15 PM,82.0,69.3,65,30.15,10.0,SE,16.1,23.0,N/A,,Mostly Cloudy,130,2013-04-26 18:15:00
1:35 PM,82.2,69.4,65,30.15,10.0,SE,15.0,20.7,N/A,,Mostly Cloudy,140,2013-04-26 18:35:00
1:55 PM,81.9,69.4,66,30.14,10.0,SE,16.1,25.3,N/A,,Mostly Cloudy,140,2013-04-26 18:55:00
2:15 PM,82.2,69.3,65,30.14,10.0,SE,16.1,24.2,N/A,,Mostly Cloudy,130,2013-04-26 19:15:00
2:35 PM,82.6,68.7,63,30.13,10.0,SE,13.8,24.2,N/A,,Mostly Cloudy,140,2013-04-26 19:35:00
2:55 PM,83.1,69.1,62,30.12,10.0,SE,17.3,25.3,N/A,,Mostly Cloudy,140,2013-04-26 19:55:00
3:15 PM,82.9,69.1,63,30.11,10.0,SE,19.6,24.2,N/A,,Mostly Cloudy,140,2013-04-26 20:15:00
3:35 PM,83.5,68.2,60,30.11,10.0,SE,16.1,23.0,N/A,,Scattered Clouds,140,2013-04-26 20:35:00
3:55 PM,83.5,68.2,60,30.11,10.0,SSE,13.8,23.0,N/A,,Scattered Clouds,150,2013-04-26 20:55:00
4:15 PM,82.9,68.7,62,30.10,10.0,SE,18.4,25.3,N/A,,Scattered Clouds,130,2013-04-26 21:15:00
4:35 PM,81.7,68.9,65,30.09,10.0,SE,15.0,20.7,N/A,,Clear,140,2013-04-26 21:35:00
4:55 PM,81.5,70.0,68,30.08,10.0,SE,15.0,23.0,N/A,,Scattered Clouds,130,2013-04-26 21:55:00
5:15 PM,81.0,69.4,68,30.09,10.0,SE,16.1,23.0,N/A,,Scattered Clouds,130,2013-04-26 22:15:00
5:35 PM,79.5,68.7,69,30.09,10.0,SE,11.5,-,N/A,,Scattered Clouds,140,2013-04-26 22:35:00
5:55 PM,78.1,68.0,71,30.08,10.0,SE,15.0,20.7,N/A,,Clear,140,2013-04-26 22:55:00
6:15 PM,78.8,68.9,72,30.09,10.0,SE,8.1,-,N/A,,Scattered Clouds,140,2013-04-26 23:15:00
6:35 PM,79.0,68.9,71,30.09,10.0,SE,11.5,16.1,N/A,,Mostly Cloudy,130,2013-04-26 23:35:00
6:55 PM,78.1,67.8,71,30.10,10.0,SE,10.4,17.3,N/A,,Scattered Clouds,130,2013-04-26 23:55:00
7:15 PM,76.8,68.5,75,30.10,10.0,ESE,11.5,-,N/A,,Scattered Clouds,120,2013-04-27 00:15:00
7:35 PM,75.2,69.1,81,30.10,10.0,ESE,11.5,-,N/A,,Mostly Cloudy,120,2013-04-27 00:35:00
7:55 PM,73.9,69.3,85,30.10,10.0,ESE,10.4,-,N/A,,Scattered Clouds,110,2013-04-27 00:55:00
8:15 PM,73.2,70.2,90,30.10,10.0,ESE,9.2,-,N/A,,Mostly Cloudy,110,2013-04-27 01:15:00
8:35 PM,72.9,72.5,99,30.10,10.0,ESE,10.4,-,N/A,,Mostly Cloudy,110,2013-04-27 01:35:00
8:55 PM,72.5,72.5,100,30.10,10.0,ESE,9.2,-,N/A,,Mostly Cloudy,120,2013-04-27 01:55:00
9:15 PM,72.5,72.5,100,30.10,10.0,ESE,13.8,-,N/A,,Mostly Cloudy,120,2013-04-27 02:15:00
9:35 PM,72.3,72.3,100,30.11,10.0,SE,12.7,-,N/A,,Overcast,130,2013-04-27 02:35:00
9:55 PM,72.1,72.1,100,30.11,10.0,ESE,10.4,-,N/A,,Overcast,120,2013-04-27 02:55:00
10:15 PM,71.8,71.8,100,30.11,10.0,ESE,11.5,-,N/A,,Mostly Cloudy,120,2013-04-27 03:15:00
10:35 PM,71.6,71.6,100,30.11,10.0,ESE,11.5,-,N/A,,Mostly Cloudy,120,2013-04-27 03:35:00
10:55 PM,71.4,71.4,100,30.11,10.0,ESE,8.1,-,N/A,,Scattered Clouds,120,2013-04-27 03:55:00
11:15 PM,70.9,70.9,100,30.12,7.0,SE,8.1,-,N/A,,Clear,130,2013-04-27 04:15:00
11:35 PM,70.7,70.7,100,30.12,-9999.0,SE,6.9,-,N/A,,Mostly Cloudy,130,2013-04-27 04:35:00
11:55 PM,70.7,70.7,100,30.12,-9999.0,SE,6.9,-,N/A,,Overcast,130,2013-04-27 04:55:00